Voltar ao catálogo

SL-12 DEB

LostHEO
NORAD 29489·DEBRIS·🇷🇺 Russia

Lançado May 31, 1989 de Baikonur Cosmodrome

Loading…

Próximas Passagens (próximas 24 horas)

TLE

ObsoletoSource: Space-Track

Época: May 19, 2024, 11:13 UTC

1 29489U 89039DZ  24140.46755207 -.00050617  00000-0 -49733+1 0  9995
2 29489  61.5467 239.1219 5037798  73.5347 334.4944  4.48152827  3913

Acompanhe SL-12 DEB em tempo real com AllMySat

Download on the App Store